FW5817 Weather Reports


Display with metric or nautical units.
time (UTC)temp
F
wind
direction
speed
MPH
gust
MPH
rain 1hr
in
rain 24hr
in
rain mn
in
humidity
%
barometer
mb
20260505164524 77 200 6.0 14.0 0.00 0.01 0.01 47 1008.6
20260505164010 77 209 3.0 12.0 0.00 0.01 0.01 49 1008.6
20260505163511 77 189 4.0 10.0 0.00 0.01 0.01 48 1008.7
20260505163024 77 283 4.0 9.0 0.00 0.01 0.01 49 1009.0
20260505162509 77 238 2.0 9.0 0.00 0.01 0.01 50 1008.9
20260505162008 77 199 3.0 12.0 0.00 0.01 0.01 51 1009.0
20260505161512 76 261 3.0 12.0 0.00 0.01 0.01 49 1009.2
20260505161007 76 292 5.0 12.0 0.00 0.01 0.01 48 1009.1
20260505160506 76 306 3.0 12.0 0.00 0.01 0.01 50 1009.1
20260505153027 74 202 4.0 19.0 0.00 0.01 0.01 52 1009.0
20260505152511 74 205 6.0 19.0 0.00 0.01 0.01 53 1009.1
20260505152007 73 293 5.0 14.0 0.00 0.01 0.01 55 1009.2
20260505151528 73 250 9.0 14.0 0.00 0.01 0.01 54 1009.1
20260505151006 73 204 6.0 14.0 0.00 0.01 0.01 55 1009.1
20260505150508 73 194 6.0 16.0 0.00 0.01 0.01 55 1009.1
20260505140510 69 213 7.0 13.0 0.00 0.01 0.01 59 1009.5
20260505125017 64 192 3.0 6.0 0.00 0.01 0.01 66 1009.7
20260505124517 64 196 1.0 7.0 0.00 0.01 0.01 67 1009.9
20260505124014 64 194 3.0 7.0 0.00 0.01 0.01 65 1009.7
20260505123515 63 223 2.0 7.0 0.00 0.01 0.01 66 1009.7
20260505123022 63 222 2.0 10.0 0.00 0.01 0.01 66 1009.7
20260505122509 63 188 3.0 10.0 0.00 0.01 0.01 67 1009.8
20260505122014 63 186 4.0 9.0 0.00 0.01 0.01 68 1009.8
20260505121525 62 200 3.0 7.0 0.00 0.01 0.01 68 1009.7
20260505121009 62 231 4.0 7.0 0.00 0.01 0.01 68 1009.8
20260505120507 62 228 3.0 6.0 0.00 0.01 0.01 69 1009.7
20260505120028 61 232 2.0 4.0 0.00 0.01 0.01 69 1009.7
20260505115511 62 207 0.0 4.0 0.00 0.01 0.01 68 1009.6
20260505115009 62 207 2.0 4.0 0.00 0.01 0.01 68 1009.6
20260505114515 62 207 1.0 7.0 0.00 0.01 0.01 68 1009.6
20260505114009 62 223 3.0 7.0 0.00 0.01 0.01 68 1009.5
20260505113507 62 212 1.0 5.0 0.00 0.01 0.01 69 1009.5
20260505113018 61 299 1.0 8.0 0.00 0.01 0.01 70 1009.3
20260505112510 61 173 2.0 8.0 0.00 0.01 0.01 70 1008.9
20260505112003 61 202 0.0 5.0 0.00 0.01 0.01 70 1009.1
20260505111504 60 200 2.0 9.0 0.00 0.01 0.01 70 1009.0
20260505111005 60 213 2.0 10.0 0.00 0.01 0.01 70 1009.1
20260505110505 59 207 3.0 10.0 0.00 0.01 0.01 71 1009.1
20260505102013 60 208 2.0 7.0 0.00 0.01 0.01 70 1009.2
20260505101526 59 259 3.0 7.0 0.00 0.01 0.01 70 1008.9
20260505101008 59 207 1.0 6.0 0.00 0.01 0.01 71 1008.8
20260505100506 58 156 3.0 6.0 0.00 0.01 0.01 72 1008.7
20260505100007 58 217 1.0 3.0 0.00 0.01 0.01 73 1008.6
20260505095503 57 172 1.0 3.0 0.00 0.01 0.01 74 1008.5
20260505095009 57 206 0.0 2.0 0.00 0.01 0.01 73 1008.5
20260505094519 58 206 0.0 2.0 0.00 0.01 0.01 72 1008.6
20260505094006 58 206 0.0 1.0 0.00 0.01 0.01 71 1008.6
20260505093506 59 206 0.0 3.0 0.00 0.01 0.01 71 1008.5
20260505093016 59 206 0.0 3.0 0.00 0.01 0.01 71 1008.5
20260505092511 59 206 2.0 3.0 0.00 0.01 0.01 70 1008.5
20260505092010 59 202 0.0 2.0 0.00 0.01 0.01 70 1008.5
20260505091518 59 202 0.0 4.0 0.00 0.01 0.01 70 1008.5
20260505091011 60 202 1.0 4.0 0.00 0.01 0.01 69 1008.6
20260505090508 60 192 0.0 3.0 0.00 0.01 0.01 69 1008.5
20260505090025 60 232 0.0 5.0 0.00 0.01 0.01 69 1008.6
20260505085503 61 228 0.0 5.0 0.00 0.01 0.01 68 1008.6
20260505085003 61 178 1.0 7.0 0.00 0.01 0.01 68 1008.3
20260505084507 61 198 3.0 8.0 0.00 0.01 0.01 68 1008.3
20260505084004 60 188 5.0 8.0 0.00 0.01 0.01 68 1008.5
20260505083507 60 193 2.0 5.0 0.00 0.01 0.01 68 1008.4
20260505083016 61 173 1.0 5.0 0.00 0.01 0.01 68 1008.4
20260505082507 61 161 2.0 7.0 0.00 0.01 0.01 68 1008.4
20260505082010 61 218 3.0 8.0 0.00 0.01 0.01 68 1008.3
20260505081520 60 201 4.0 8.0 0.00 0.01 0.01 69 1008.3
20260505081011 60 202 4.0 7.0 0.00 0.01 0.01 69 1008.3
20260505080510 60 138 3.0 7.0 0.00 0.01 0.01 69 1008.3
20260505080022 60 213 0.0 2.0 0.00 0.01 0.01 69 1008.3
20260505075506 60 213 0.0 7.0 0.00 0.01 0.01 69 1008.4
20260505075013 60 150 2.0 7.0 0.00 0.01 0.01 68 1008.2
20260505074524 61 162 3.0 7.0 0.00 0.01 0.01 68 1008.2
20260505074004 61 188 3.0 8.0 0.00 0.01 0.01 68 1008.3
20260505073503 61 171 4.0 7.0 0.00 0.01 0.01 68 1008.2
20260505073012 60 166 5.0 6.0 0.00 0.01 0.01 69 1008.3
20260505072505 60 166 2.0 4.0 0.00 0.01 0.01 69 1008.2
20260505072007 61 165 0.0 2.0 0.00 0.01 0.01 68 1008.2
20260505071515 61 165 0.0 9.0 0.00 0.01 0.01 68 1008.2
20260505071008 61 165 0.0 9.0 0.00 0.01 0.01 67 1008.1
20260505070507 61 150 4.0 9.0 0.00 0.01 0.01 67 1008.0
20260505070030 62 175 2.0 7.0 0.00 0.01 0.01 66 1008.1
20260505065510 62 151 3.0 8.0 0.00 0.01 0.01 66 1008.0
20260505065008 62 146 4.0 8.0 0.00 0.01 0.01 66 1008.0
20260505064525 62 161 5.0 10.0 0.00 0.01 0.01 66 1008.0
20260505064012 61 161 4.0 10.0 0.00 0.01 0.01 67 1008.1
20260505063510 61 174 2.0 4.0 0.01 0.01 0.01 68 1008.2
20260505063011 61 171 2.0 4.0 0.01 0.01 0.01 67 1008.2
20260505062504 62 292 0.0 2.0 0.01 0.01 0.01 68 1008.2
20260505062009 63 246 0.0 4.0 0.01 0.01 0.01 67 1008.2
20260505061519 63 240 1.0 7.0 0.01 0.01 0.01 64 1008.2
20260505061008 62 209 2.0 8.0 0.01 0.01 0.01 66 1008.3
20260505060512 61 167 2.0 9.0 0.01 0.01 0.01 67 1008.2
20260505060017 61 187 5.0 9.0 0.01 0.01 0.01 69 1008.3
20260505055511 60 178 3.0 5.0 0.01 0.01 0.01 72 1008.3
20260505055013 61 150 3.0 4.0 0.01 0.01 0.01 71 1008.4
20260505054532 63 151 2.0 6.0 0.01 0.01 0.01 67 1008.5
20260505054014 63 177 3.0 6.0 0.01 0.01 0.01 64 1008.5
20260505053516 63 153 0.0 3.0 0.00 0.00 0.00 62 1008.7
20260505053023 64 176 0.0 4.0 0.00 0.00 0.00 61 1008.6
20260505052510 64 176 1.0 4.0 0.00 0.00 0.00 61 1008.5
20260505052007 64 214 2.0 5.0 0.00 0.00 0.00 60 1008.6
20260505051515 64 182 1.0 5.0 0.00 0.00 0.00 60 1008.6
20260505051005 64 233 1.0 6.0 0.00 0.00 0.00 60 1008.6
20260505050508 64 173 1.0 6.0 0.00 0.00 0.00 59 1008.5
20260505041544 64 169 5.0 13.0 0.00 0.00 0.00 58 1008.1
20260505041010 64 165 6.0 13.0 0.00 0.00 0.00 58 1008.1
20260505040508 64 161 4.0 9.0 0.00 0.00 0.00 57 1008.0
20260505040014 64 165 5.0 13.0 0.00 0.00 0.00 57 1008.1
20260505035511 64 205 5.0 13.0 0.00 0.00 0.00 56 1008.0
20260505035011 65 216 6.0 10.0 0.00 0.00 0.00 56 1008.1
20260505034524 65 175 5.0 9.0 0.00 0.00 0.00 56 1008.1
20260505034006 64 196 5.0 9.0 0.00 0.00 0.00 56 1008.0
20260505033508 64 204 4.0 11.0 0.00 0.00 0.00 56 1008.1
20260505033023 64 194 6.0 11.0 0.00 0.00 0.00 56 1008.0
20260505032510 64 183 4.0 10.0 0.00 0.00 0.00 56 1007.9
20260505032011 63 168 5.0 10.0 0.00 0.00 0.00 57 1008.1
20260505031537 63 177 2.0 5.0 0.00 0.00 0.00 56 1008.1
20260505031009 63 180 1.0 8.0 0.00 0.00 0.00 56 1008.2
20260505030508 64 189 4.0 9.0 0.00 0.00 0.00 55 1008.2
20260505030028 64 170 5.0 9.0 0.00 0.00 0.00 55 1008.2
20260505025504 64 161 4.0 8.0 0.00 0.00 0.00 55 1008.1
20260505025004 64 161 5.0 8.0 0.00 0.00 0.00 54 1008.2
20260505024509 65 146 3.0 7.0 0.00 0.00 0.00 54 1008.0
20260505024007 65 151 4.0 10.0 0.00 0.00 0.00 53 1008.1
20260505023505 65 156 4.0 11.0 0.00 0.00 0.00 52 1008.0
20260505023012 66 193 4.0 11.0 0.00 0.00 0.00 52 1008.0
20260505022507 66 169 6.0 11.0 0.00 0.00 0.00 51 1008.0
20260505022009 66 184 4.0 11.0 0.00 0.00 0.00 51 1008.0
20260505021509 66 175 2.0 6.0 0.00 0.00 0.00 51 1008.0
20260505021005 67 169 1.0 10.0 0.00 0.00 0.00 50 1008.0
20260505020503 67 171 5.0 10.0 0.00 0.00 0.00 49 1007.9
20260505020010 67 199 5.0 10.0 0.00 0.00 0.00 49 1008.0
20260505015505 67 202 3.0 10.0 0.00 0.00 0.00 49 1008.1
20260505015004 67 159 4.0 12.0 0.00 0.00 0.00 49 1008.0
20260505014513 67 188 6.0 10.0 0.00 0.00 0.00 49 1008.0
20260505014009 67 188 5.0 11.0 0.00 0.00 0.00 49 1008.0
20260505013511 68 179 4.0 11.0 0.00 0.00 0.00 48 1007.9
20260505013012 68 171 4.0 11.0 0.00 0.00 0.00 48 1007.9
20260505012506 68 157 3.0 11.0 0.00 0.00 0.00 48 1007.9
20260505012008 68 147 6.0 11.0 0.00 0.00 0.00 48 1007.9
20260505011512 68 191 4.0 10.0 0.00 0.00 0.00 48 1007.8
20260505011005 68 184 4.0 9.0 0.00 0.00 0.00 48 1007.8
20260505010507 68 175 4.0 7.0 0.00 0.00 0.00 48 1007.7
20260505010007 68 178 2.0 6.0 0.00 0.00 0.00 48 1007.7
20260505005504 68 229 3.0 9.0 0.00 0.00 0.00 48 1007.6
20260505005007 68 274 3.0 9.0 0.00 0.00 0.00 48 1007.6
20260505004512 68 230 5.0 8.0 0.00 0.00 0.00 48 1007.5
20260505004007 68 199 3.0 8.0 0.00 0.00 0.00 48 1007.5
20260505003511 68 227 4.0 8.0 0.00 0.00 0.00 48 1007.5
20260505003014 68 214 2.0 8.0 0.00 0.00 0.00 47 1007.5
20260505002507 68 169 2.0 11.0 0.00 0.00 0.00 47 1007.5
20260505002007 68 190 6.0 11.0 0.00 0.00 0.00 47 1007.5
20260505001514 68 240 3.0 8.0 0.00 0.00 0.00 48 1007.5
20260505001007 68 173 3.0 6.0 0.00 0.00 0.00 47 1007.4
20260505000504 68 212 3.0 9.0 0.00 0.00 0.00 48 1007.4
20260505000014 68 157 4.0 9.0 0.00 0.00 0.00 47 1007.4
20260504235510 69 194 6.0 10.0 0.00 0.00 0.00 47 1007.3
20260504235008 69 206 2.0 10.0 0.00 0.00 0.00 47 1007.4
20260504234510 69 203 5.0 11.0 0.00 0.00 0.00 46 1007.3
20260504234007 69 194 3.0 11.0 0.00 0.00 0.00 47 1007.3
20260504233511 70 199 4.0 11.0 0.00 0.00 0.00 46 1007.3
20260504233015 70 210 7.0 11.0 0.00 0.00 0.00 46 1007.3
20260504232511 70 196 4.0 13.0 0.00 0.00 0.00 46 1007.2
20260504232006 70 212 6.0 13.0 0.00 0.00 0.00 46 1007.2
20260504231516 70 196 4.0 14.0 0.00 0.00 0.00 46 1007.2
20260504231007 71 163 4.0 16.0 0.00 0.00 0.00 46 1007.2
20260504230508 71 203 8.0 16.0 0.00 0.00 0.00 45 1007.2
20260504230014 71 159 4.0 13.0 0.00 0.00 0.00 46 1007.3
20260504225509 71 212 3.0 16.0 0.00 0.00 0.00 45 1007.2
20260504225009 71 164 6.0 16.0 0.00 0.00 0.00 45 1007.2
20260504224521 71 140 7.0 15.0 0.00 0.00 0.00 45 1007.2
20260504224008 71 223 6.0 14.0 0.00 0.00 0.00 45 1007.2
20260504223507 72 200 4.0 13.0 0.00 0.00 0.00 45 1007.2
20260504223025 71 201 4.0 16.0 0.00 0.00 0.00 44 1007.3
20260504222507 71 228 8.0 17.0 0.00 0.00 0.00 44 1007.3
20260504222010 72 198 6.0 17.0 0.00 0.00 0.00 44 1007.2
20260504221517 72 202 6.0 14.0 0.00 0.00 0.00 44 1007.2
20260504221008 72 215 5.0 15.0 0.00 0.00 0.00 45 1007.1
20260504220509 72 188 6.0 15.0 0.00 0.00 0.00 44 1007.2
20260504220019 72 194 4.0 14.0 0.00 0.00 0.00 45 1007.2
20260504215507 72 195 5.0 14.0 0.00 0.00 0.00 44 1007.1
20260504215012 72 170 6.0 16.0 0.00 0.00 0.00 44 1007.2
20260504214522 73 159 5.0 16.0 0.00 0.00 0.00 43 1007.1
20260504214008 73 163 6.0 16.0 0.00 0.00 0.00 43 1007.1
20260504213512 73 188 5.0 16.0 0.00 0.00 0.00 44 1007.1
20260504213029 73 165 8.0 14.0 0.00 0.00 0.00 43 1007.1
20260504212506 73 191 7.0 13.0 0.00 0.00 0.00 42 1007.1
20260504212008 73 188 6.0 12.0 0.00 0.00 0.00 42 1007.2
20260504211523 74 146 6.0 12.0 0.00 0.00 0.00 42 1007.2
20260504211008 74 161 5.0 11.0 0.00 0.00 0.00 39 1007.1
20260504210508 74 192 4.0 9.0 0.00 0.00 0.00 39 1007.1
20260504210018 73 136 4.0 13.0 0.00 0.00 0.00 41 1007.1
20260504205510 73 184 6.0 14.0 0.00 0.00 0.00 40 1007.1
20260504205008 74 169 6.0 14.0 0.00 0.00 0.00 39 1007.2
20260504204533 74 198 6.0 14.0 0.00 0.00 0.00 40 1007.2
20260504204011 74 226 2.0 16.0 0.00 0.00 0.00 42 1007.2
20260504203508 74 229 6.0 15.0 0.00 0.00 0.00 38 1007.2
20260504203023 74 184 3.0 12.0 0.00 0.00 0.00 43 1007.3
20260504202506 73 185 3.0 14.0 0.00 0.00 0.00 41 1007.4
20260504202011 73 205 3.0 14.0 0.00 0.00 0.00 40 1007.6
20260504201515 73 191 3.0 14.0 0.00 0.00 0.00 41 1007.6
20260504201006 73 145 4.0 10.0 0.00 0.00 0.00 42 1007.6
20260504200510 73 273 4.0 12.0 0.00 0.00 0.00 43 1007.6
20260504200018 73 223 5.0 15.0 0.00 0.00 0.00 44 1007.8
20260504195509 73 209 8.0 15.0 0.00 0.00 0.00 42 1007.9
20260504195012 72 250 4.0 13.0 0.00 0.00 0.00 43 1008.1
20260504194520 72 198 4.0 14.0 0.00 0.00 0.00 43 1008.1
20260504194008 72 220 8.0 13.0 0.00 0.00 0.00 41 1008.2
20260504193509 72 163 7.0 16.0 0.00 0.00 0.00 44 1008.3
20260504193020 72 214 4.0 16.0 0.00 0.00 0.00 42 1008.2
20260504192510 72 294 3.0 10.0 0.00 0.00 0.00 42 1008.3
20260504192012 72 198 4.0 16.0 0.00 0.00 0.00 43 1008.4
20260504191521 71 175 10.0 17.0 0.00 0.00 0.00 43 1008.5
20260504191010 71 180 7.0 19.0 0.00 0.00 0.00 43 1008.5
20260504190507 71 223 7.0 19.0 0.00 0.00 0.00 44 1008.6
20260504190016 71 211 5.0 18.0 0.00 0.00 0.00 42 1008.8
20260504185508 71 211 5.0 15.0 0.00 0.00 0.00 43 1008.7
20260504185009 72 185 8.0 14.0 0.00 0.00 0.00 43 1008.8
20260504184524 71 296 4.0 13.0 0.00 0.00 0.00 41 1009.0
20260504184011 71 216 2.0 15.0 0.00 0.00 0.00 44 1008.9
20260504183509 70 204 6.0 15.0 0.00 0.00 0.00 44 1009.0
20260504183022 71 307 5.0 15.0 0.00 0.00 0.00 44 1009.1
20260504182508 71 217 4.0 14.0 0.00 0.00 0.00 44 1009.1
20260504182011 71 242 5.0 12.0 0.00 0.00 0.00 44 1009.2
20260504181523 70 178 3.0 10.0 0.00 0.00 0.00 44 1009.2
20260504181013 70 219 2.0 18.0 0.00 0.00 0.00 43 1009.4
20260504180510 70 184 4.0 18.0 0.00 0.00 0.00 45 1009.3
20260504180022 70 205 7.0 12.0 0.00 0.00 0.00 45 1009.4
20260504175504 70 211 3.0 16.0 0.00 0.00 0.00 45 1009.5
20260504175008 69 236 4.0 16.0 0.00 0.00 0.00 45 1009.5
20260504174520 70 225 3.0 10.0 0.00 0.00 0.00 46 1009.6
20260504174009 69 162 5.0 12.0 0.00 0.00 0.00 43 1009.7
20260504173504 69 202 2.0 12.0 0.00 0.00 0.00 45 1009.7
20260504173007 68 209 6.0 14.0 0.00 0.00 0.00 44 1009.8
20260504172504 68 200 6.0 14.0 0.00 0.00 0.00 45 1010.0
20260504172002 68 318 3.0 13.0 0.00 0.00 0.00 44 1009.9
20260504171510 68 145 3.0 18.0 0.00 0.00 0.00 45 1009.9
20260504171006 67 215 7.0 18.0 0.00 0.00 0.00 46 1010.0
20260504170507 67 149 6.0 15.0 0.00 0.00 0.00 46 1010.1